Regional Weather Roundup
Issued by NWS

Home | Current Version | Previous Version | Graphics & Text | Print | Product List | Glossary On
Versions: 1 2 3 4 5 6 7 8 9 10 11 12 13 14 15 16 17 18 19 20 21 22 23 24 25 26 27 28 29 30 31 32 33 34 35 36 37 38 39 40 41 42 43 44 45 46 47 48 49 50
719
ASUS44 KLIX 230801
RWRLA
LOUISIANA WEATHER ROUNDUP
NATIONAL WEATHER SERVICE NEW ORLEANS LA
300 AM CDT WED APR 23 2014

NOTE: "FAIR" INDICATES FEW OR NO CLOUDS BELOW 12,000 FEET WITH NO
      SIGNIFICANT WEATHER AND/OR OBSTRUCTIONS TO VISIBILITY.
      SKY/WX - SKY CONDITION AND SIGNIFICANT WEATHER.
      TMP - AIR TEMPERATURE.    DP   - DEWPOINT TEMPERATURE.
      RH  - RELATIVE HUMIDITY.  PRES - PRESSURE.
      HX  - HEAT INDEX.         WCI  - WIND CHILL INDEX.

*  THESE STATIONS ARE NOT NWS OR FAA STATIONS AND ARE NOT UNDER
   NWS QUALITY CONTROL.

LAZ040-048-061>063-065-066-069-230900-
SOUTHEAST LOUISIANA

CITY           SKY/WX    TMP DP  RH WIND       PRES   REMARKS
N.O. AUDUBON   NOT AVBL
N.O. INTL ARPT CLEAR     65  63  93 CALM      29.93S
N.O. LAKEFRONT CLEAR     68  65  90 W6        29.93S
N.O. DOWNTOWN* FAIR      68  61  77 CALM      29.93S
SLIDELL        CLEAR     58  55  90 CALM      29.92S
BATON ROUGE    CLEAR     61  58  90 CALM      29.94S
BOOTHVILLE     CLEAR     66  65  96 W5        29.92F FOG
BELLE CHASSE   CLEAR     60  57  89 CALM      29.92S FOG
BOGALUSA*        N/A     58  56  90 CALM      29.93F
GALLIANO*      FOG       59  58  96 CALM      29.93S VSB 1/4
NEW ROADS*     NOT AVBL
GONZALES*      NOT AVBL
HAMMOND*       NOT AVBL
HOUMA*         FOG       62  60  93 CALM      29.93F VSB 1/4
PORT FOURCHON* MOSUNNY   70  68  94 NW5       29.94F

$$

LAZ041-044-053-054-230900-
SOUTHWEST LOUISIANA

CITY           SKY/WX    TMP DP  RH WIND       PRES   REMARKS
LAKE CHARLES   FOG       62  62 100 CALM      29.93F VSB 1/4
LAFAYETTE      CLEAR     62  60  93 CALM      29.94F
PATTERSON      CLEAR     61  61 100 CALM      29.97S
SALT POINT       N/A     71  68  90 CALM      29.93S
NEW IBERIA     CLEAR     62  59  90 N3        29.94F
CHENAULT AIRPK NOT AVBL

$$

LAZ027-028-230900-
CENTRAL LOUISIANA

CITY           SKY/WX    TMP DP  RH WIND       PRES   REMARKS
FORT POLK      CLEAR     60  57  89 CALM      29.94F
ALEXANDRIA INT CLEAR     60  59  96 CALM      29.93F FOG
ALEXANDRIA     CLEAR     56  54  93 CALM      29.95S FOG

$$

LAZ001-002-230900-
NORTHWEST LOUISIANA

CITY           SKY/WX    TMP DP  RH WIND       PRES   REMARKS
SHREVEPORT     CLEAR     60  57  89 CALM      29.93S
BARKSDALE AFB  NOT AVBL
DTN SHREVEPORT CLEAR     60  57  89 CALM      29.93F

$$

LAZ014-016-230900-
NORTHEAST LOUISIANA

CITY           SKY/WX    TMP DP  RH WIND       PRES   REMARKS
MONROE         CLEAR     58  57  97 CALM      29.95S FOG
TALLULAH       FOG       59  59 100 CALM      29.94F VSB 3/4

$$




USA.gov is the U.S. government's official web portal to all federal, state and local government web resources and services.